#Datum;Uhrzeit;WR;Pac;DaySum;Status;WR;Pac;DaySum;Status;Pdc1;Udc;Temp;WR;Pac;DaySum;Status;Pdc1;Udc;Temp;WR;Pac;DaySum;Status;Pdc1;Udc;Temp;WR;Pac;DaySum;Status;Pdc1;Pdc2;Udc1;Udc2;Temp;WR;Pac;DaySum;Status;Pdc1;Pdc2;Udc1;Udc2;Temp;WR;Pac;DaySum;Status;Pdc1;Udc;Temp;WR;Pac;DaySum;Status;Pdc1;Udc;Temp;WR;Pac;DaySum;Status;Pdc1;Udc;Temp
22.12.17;23:55:00;1;696;17455;0;2;0;644;0;0;0;0;3;0;254;0;0;0;0;4;0;384;0;0;0;0;5;0;1602;0;0;0;0;0;0;6;0;1036;0;0;0;0;0;0;7;0;523;0;0;0;0;8;0;518;0;0;0;0;9;0;136;0;0;0;0
22.12.17;23:50:00;1;845;17384;0;2;0;644;0;0;0;0;3;0;254;0;0;0;0;4;0;384;0;0;0;0;5;0;1602;0;0;0;0;0;0;6;0;1036;0;0;0;0;0;0;7;0;523;0;0;0;0;8;0;518;0;0;0;0;9;0;136;0;0;0;0
22.12.17;23:45:00;1;743;17314;0;2;0;644;0;0;0;0;3;0;254;0;0;0;0;4;0;384;0;0;0;0;5;0;1602;0;0;0;0;0;0;6;0;1036;0;0;0;0;0;0;7;0;523;0;0;0;0;8;0;518;0;0;0;0;9;0;136;0;0;0;0
22.12.17;23:40:00;1;946;17236;0;2;0;644;0;0;0;0;3;0;254;0;0;0;0;4;0;384;0;0;0;0;5;0;1602;0;0;0;0;0;0;6;0;1036;0;0;0;0;0;0;7;0;523;0;0;0;0;8;0;518;0;0;0;0;9;0;136;0;0;0;0
22.12.17;23:35:00;1;927;17161;0;2;0;644;0;0;0;0;3;0;254;0;0;0;0;4;0;384;0;0;0;0;5;0;1602;0;0;0;0;0;0;6;0;1036;0;0;0;0;0;0;7;0;523;0;0;0;0;8;0;518;0;0;0;0;9;0;136;0;0;0;0
22.12.17;23:30:00;1;703;17074;0;2;0;644;0;0;0;0;3;0;254;0;0;0;0;4;0;384;0;0;0;0;5;0;1602;0;0;0;0;0;0;6;0;1036;0;0;0;0;0;0;7;0;523;0;0;0;0;8;0;518;0;0;0;0;9;0;136;0;0;0;0
22.12.17;23:25:00;1;964;17015;0;2;0;644;0;0;0;0;3;0;254;0;0;0;0;4;0;384;0;0;0;0;5;0;1602;0;0;0;0;0;0;6;0;1036;0;0;0;0;0;0;7;0;523;0;0;0;0;8;0;518;0;0;0;0;9;0;136;0;0;0;0
22.12.17;23:20:00;1;698;16928;0;2;0;644;0;0;0;0;3;0;254;0;0;0;0;4;0;384;0;0;0;0;5;0;1602;0;0;0;0;0;0;6;0;1036;0;0;0;0;0;0;7;0;523;0;0;0;0;8;0;518;0;0;0;0;9;0;136;0;0;0;0
22.12.17;23:15:00;1;1115;16869;0;2;0;644;0;0;0;0;3;0;254;0;0;0;0;4;0;384;0;0;0;0;5;0;1602;0;0;0;0;0;0;6;0;1036;0;0;0;0;0;0;7;0;523;0;0;0;0;8;0;518;0;0;0;0;9;0;136;0;0;0;0
22.12.17;23:10:00;1;711;16784;0;2;0;644;0;0;0;0;3;0;254;0;0;0;0;4;0;384;0;0;0;0;5;0;1602;0;0;0;0;0;0;6;0;1036;0;0;0;0;0;0;7;0;523;0;0;0;0;8;0;518;0;0;0;0;9;0;136;0;0;0;0
22.12.17;23:05:00;1;1106;16725;0;2;0;644;0;0;0;0;3;0;254;0;0;0;0;4;0;384;0;0;0;0;5;0;1602;0;0;0;0;0;0;6;0;1036;0;0;0;0;0;0;7;0;523;0;0;0;0;8;0;518;0;0;0;0;9;0;136;0;0;0;0
22.12.17;23:00:00;1;709;16637;0;2;0;644;0;0;0;0;3;0;254;0;0;0;0;4;0;384;0;0;0;0;5;0;1602;0;0;0;0;0;0;6;0;1036;0;0;0;0;0;0;7;0;523;0;0;0;0;8;0;518;0;0;0;0;9;0;136;0;0;0;0
22.12.17;22:55:00;1;920;16578;0;2;0;644;0;0;0;0;3;0;254;0;0;0;0;4;0;384;0;0;0;0;5;0;1602;2;0;0;0;0;0;6;0;1036;2;0;0;0;0;0;7;0;523;0;0;0;0;8;0;518;0;0;0;0;9;0;136;0;0;0;0
22.12.17;22:50:00;1;748;16492;0;2;0;644;0;0;0;0;3;0;254;0;0;0;0;4;0;384;0;0;0;0;5;0;1602;2;0;0;0;0;0;6;0;1036;2;0;0;0;0;0;7;0;523;0;0;0;0;8;0;518;0;0;0;0;9;0;136;0;0;0;0
22.12.17;22:45:00;1;1079;16411;0;2;0;644;0;0;0;0;3;0;254;0;0;0;0;4;0;384;0;0;0;0;5;0;1602;2;0;0;0;0;0;6;0;1036;2;0;0;0;0;0;7;0;523;0;0;0;0;8;0;518;0;0;0;0;9;0;136;0;0;0;0
22.12.17;22:40:00;1;1093;16342;0;2;0;644;0;0;0;0;3;0;254;0;0;0;0;4;0;384;0;0;0;0;5;0;1602;2;0;0;0;0;0;6;0;1036;2;0;0;0;0;0;7;0;523;0;0;0;0;8;0;518;0;0;0;0;9;0;136;0;0;0;0
22.12.17;22:35:00;1;712;16254;0;2;0;644;0;0;0;0;3;0;254;0;0;0;0;4;0;384;0;0;0;0;5;0;1602;2;0;0;0;0;0;6;0;1036;2;0;0;0;0;0;7;0;523;0;0;0;0;8;0;518;0;0;0;0;9;0;136;0;0;0;0
22.12.17;22:30:00;1;1116;16195;0;2;0;644;0;0;0;0;3;0;254;0;0;0;0;4;0;384;0;0;0;0;5;0;1602;2;0;0;0;0;0;6;0;1036;2;0;0;0;0;0;7;0;523;0;0;0;0;8;0;518;0;0;0;0;9;0;136;0;0;0;0
22.12.17;22:25:00;1;709;16108;0;2;0;644;0;0;0;0;3;0;254;0;0;0;0;4;0;384;0;0;0;0;5;0;1602;2;0;0;0;0;0;6;0;1036;2;0;0;0;0;0;7;0;523;0;0;0;0;8;0;518;0;0;0;0;9;0;136;0;0;0;0
22.12.17;22:20:00;1;1300;16049;0;2;0;644;0;0;0;0;3;0;254;0;0;0;0;4;0;384;0;0;0;0;5;0;1602;2;0;0;0;0;0;6;0;1036;2;0;0;0;0;0;7;0;523;0;0;0;0;8;0;518;0;0;0;0;9;0;136;0;0;0;0
22.12.17;22:15:00;1;1683;15962;0;2;0;644;0;0;0;0;3;0;254;0;0;0;0;4;0;384;0;0;0;0;5;0;1602;2;0;0;0;0;0;6;0;1036;2;0;0;0;0;0;7;0;523;0;0;0;0;8;0;518;0;0;0;0;9;0;136;0;0;0;0
22.12.17;22:10:00;1;755;15832;0;2;0;644;0;0;0;0;3;0;254;0;0;0;0;4;0;384;0;0;0;0;5;0;1602;2;0;0;0;0;0;6;0;1036;2;0;0;0;0;0;7;0;523;0;0;0;0;8;0;518;0;0;0;0;9;0;136;0;0;0;0
22.12.17;22:05:00;1;1226;15770;0;2;0;644;0;0;0;0;3;0;254;0;0;0;0;4;0;384;0;0;0;0;5;0;1602;2;0;0;0;0;0;6;0;1036;2;0;0;0;0;0;7;0;523;0;0;0;0;8;0;518;0;0;0;0;9;0;136;0;0;0;0
22.12.17;22:00:00;1;769;15678;0;2;0;644;0;0;0;0;3;0;254;0;0;0;0;4;0;384;0;0;0;0;5;0;1602;2;0;0;0;0;0;6;0;1036;2;0;0;0;0;0;7;0;523;0;0;0;0;8;0;518;0;0;0;0;9;0;136;0;0;0;0
22.12.17;21:55:00;1;1201;15613;0;2;0;644;0;0;0;0;3;0;254;0;0;0;0;4;0;384;0;0;0;0;5;0;1602;2;0;0;0;0;0;6;0;1036;2;0;0;0;0;0;7;0;523;0;0;0;0;8;0;518;0;0;0;0;9;0;136;0;0;0;0
22.12.17;21:50:00;1;1020;15517;0;2;0;644;0;0;0;0;3;0;254;0;0;0;0;4;0;384;0;0;0;0;5;0;1602;2;0;0;0;0;0;6;0;1036;2;0;0;0;0;0;7;0;523;0;0;0;0;8;0;518;0;0;0;0;9;0;136;0;0;0;0
22.12.17;21:45:00;1;899;15420;0;2;0;644;0;0;0;0;3;0;254;0;0;0;0;4;0;384;0;0;0;0;5;0;1602;2;0;0;0;0;0;6;0;1036;2;0;0;0;0;0;7;0;523;0;0;0;0;8;0;518;0;0;0;0;9;0;136;0;0;0;0
22.12.17;21:40:00;1;1203;15351;0;2;0;644;0;0;0;0;3;0;254;0;0;0;0;4;0;384;0;0;0;0;5;0;1602;2;0;0;0;0;0;6;0;1036;2;0;0;0;0;0;7;0;523;0;0;0;0;8;0;518;0;0;0;0;9;0;136;0;0;0;0
22.12.17;21:35:00;1;1291;15257;0;2;0;644;0;0;0;0;3;0;254;0;0;0;0;4;0;384;0;0;0;0;5;0;1602;2;0;0;0;0;0;6;0;1036;2;0;0;0;0;0;7;0;523;0;0;0;0;8;0;518;0;0;0;0;9;0;136;0;0;0;0
22.12.17;21:30:00;1;795;15163;0;2;0;644;0;0;0;0;3;0;254;0;0;0;0;4;0;384;0;0;0;0;5;0;1602;2;0;0;0;0;0;6;0;1036;2;0;0;0;0;0;7;0;523;0;0;0;0;8;0;518;0;0;0;0;9;0;136;0;0;0;0
22.12.17;21:25:00;1;969;15096;0;2;0;644;0;0;0;0;3;0;254;0;0;0;0;4;0;384;0;0;0;0;5;0;1602;2;0;0;0;0;0;6;0;1036;2;0;0;0;0;0;7;0;523;0;0;0;0;8;0;518;0;0;0;0;9;0;136;0;0;0;0
22.12.17;21:20:00;1;945;15000;0;2;0;644;0;0;0;0;3;0;254;0;0;0;0;4;0;384;0;0;0;0;5;0;1602;2;0;0;0;0;0;6;0;1036;2;0;0;0;0;0;7;0;523;0;0;0;0;8;0;518;0;0;0;0;9;0;136;0;0;0;0
22.12.17;21:15:00;1;761;14909;0;2;0;644;0;0;0;0;3;0;254;0;0;0;0;4;0;384;0;0;0;0;5;0;1602;2;0;0;0;0;0;6;0;1036;2;0;0;0;0;0;7;0;523;0;0;0;0;8;0;518;0;0;0;0;9;0;136;0;0;0;0
22.12.17;21:10:00;1;1136;14846;0;2;0;644;0;0;0;0;3;0;254;0;0;0;0;4;0;384;0;0;0;0;5;0;1602;2;0;0;0;0;0;6;0;1036;2;0;0;0;0;0;7;0;523;0;0;0;0;8;0;518;0;0;0;0;9;0;136;0;0;0;0
22.12.17;21:05:00;1;1160;14754;0;2;0;644;0;0;0;0;3;0;254;0;0;0;0;4;0;384;0;0;0;0;5;0;1602;2;0;0;0;0;0;6;0;1036;2;0;0;0;0;0;7;0;523;0;0;0;0;8;0;518;0;0;0;0;9;0;136;0;0;0;0
22.12.17;21:00:00;1;790;14663;0;2;0;644;0;0;0;0;3;0;254;0;0;0;0;4;0;384;0;0;0;0;5;0;1602;2;0;0;0;0;0;6;0;1036;2;0;0;0;0;0;7;0;523;0;0;0;0;8;0;518;0;0;0;0;9;0;136;0;0;0;0
22.12.17;20:55:00;1;966;14585;0;2;0;644;0;0;0;0;3;0;254;0;0;0;0;4;0;384;0;0;0;0;5;0;1602;2;0;0;0;0;0;6;0;1036;2;0;0;0;0;0;7;0;523;0;0;0;0;8;0;518;0;0;0;0;9;0;136;0;0;0;0
22.12.17;20:50:00;1;1178;14502;0;2;0;644;0;0;0;0;3;0;254;0;0;0;0;4;0;384;0;0;0;0;5;0;1602;2;0;0;0;0;0;6;0;1036;2;0;0;0;0;0;7;0;523;0;0;0;0;8;0;518;0;0;0;0;9;0;136;0;0;0;0
22.12.17;20:45:00;1;1276;14409;0;2;0;644;0;0;0;0;3;0;254;0;0;0;0;4;0;384;0;0;0;0;5;0;1602;2;0;0;0;0;0;6;0;1036;2;0;0;0;0;0;7;0;523;0;0;0;0;8;0;518;0;0;0;0;9;0;136;0;0;0;0
22.12.17;20:40:00;1;744;14315;0;2;0;644;0;0;0;0;3;0;254;0;0;0;0;4;0;384;0;0;0;0;5;0;1602;2;0;0;0;0;0;6;0;1036;2;0;0;0;0;0;7;0;523;0;0;0;0;8;0;518;0;0;0;0;9;0;136;0;0;0;0
22.12.17;20:35:00;1;1269;14251;0;2;0;644;0;0;0;0;3;0;254;0;0;0;0;4;0;384;0;0;0;0;5;0;1602;2;0;0;0;0;0;6;0;1036;2;0;0;0;0;0;7;0;523;0;0;0;0;8;0;518;0;0;0;0;9;0;136;0;0;0;0
22.12.17;20:30:00;1;1347;14160;0;2;0;644;0;0;0;0;3;0;254;0;0;0;0;4;0;384;0;0;0;0;5;0;1602;2;0;0;0;0;0;6;0;1036;2;0;0;0;0;0;7;0;523;0;0;0;0;8;0;518;0;0;0;0;9;0;136;0;0;0;0
22.12.17;20:25:00;1;920;14068;0;2;0;644;0;0;0;0;3;0;254;0;0;0;0;4;0;384;0;0;0;0;5;0;1602;2;0;0;0;0;0;6;0;1036;2;0;0;0;0;0;7;0;523;0;0;0;0;8;0;518;0;0;0;0;9;0;136;0;0;0;0
22.12.17;20:20:00;1;773;13978;0;2;0;644;0;0;0;0;3;0;254;0;0;0;0;4;0;384;0;0;0;0;5;0;1602;2;0;0;0;0;0;6;0;1036;2;0;0;0;0;0;7;0;523;0;0;0;0;8;0;518;0;0;0;0;9;0;136;0;0;0;0
22.12.17;20:15:00;1;975;13899;0;2;0;644;0;0;0;0;3;0;254;0;0;0;0;4;0;384;0;0;0;0;5;0;1602;2;0;0;0;0;0;6;0;1036;2;0;0;0;0;0;7;0;523;0;0;0;0;8;0;518;0;0;0;0;9;0;136;0;0;0;0
22.12.17;20:10:00;1;1624;13821;0;2;0;644;0;0;0;0;3;0;254;0;0;0;0;4;0;384;0;0;0;0;5;0;1602;2;0;0;0;0;0;6;0;1036;2;0;0;0;0;0;7;0;523;0;0;0;0;8;0;518;0;0;0;0;9;0;136;0;0;0;0
22.12.17;20:05:00;1;1317;13713;0;2;0;644;0;0;0;0;3;0;254;0;0;0;0;4;0;384;0;0;0;0;5;0;1602;2;0;0;0;0;0;6;0;1036;2;0;0;0;0;0;7;0;523;0;0;0;0;8;0;518;0;0;0;0;9;0;136;0;0;0;0
22.12.17;20:00:00;1;717;13619;0;2;0;644;0;0;0;0;3;0;254;0;0;0;0;4;0;384;0;0;0;0;5;0;1602;2;0;0;0;0;0;6;0;1036;2;0;0;0;0;0;7;0;523;0;0;0;0;8;0;518;0;0;0;0;9;0;136;0;0;0;0
22.12.17;19:55:00;1;624;13547;0;2;0;644;0;0;0;0;3;0;254;0;0;0;0;4;0;384;0;0;0;0;5;0;1602;2;0;0;0;0;0;6;0;1036;2;0;0;0;0;0;7;0;523;0;0;0;0;8;0;518;0;0;0;0;9;0;136;0;0;0;0
22.12.17;19:50:00;1;463;13481;0;2;0;644;0;0;0;0;3;0;254;0;0;0;0;4;0;384;0;0;0;0;5;0;1602;2;0;0;0;0;0;6;0;1036;2;0;0;0;0;0;7;0;523;0;0;0;0;8;0;518;0;0;0;0;9;0;136;0;0;0;0
22.12.17;19:45:00;1;821;13426;0;2;0;644;0;0;0;0;3;0;254;0;0;0;0;4;0;384;0;0;0;0;5;0;1602;2;0;0;0;0;0;6;0;1036;2;0;0;0;0;0;7;0;523;0;0;0;0;8;0;518;0;0;0;0;9;0;136;0;0;0;0
22.12.17;19:40:00;1;1036;13370;0;2;0;644;0;0;0;0;3;0;254;0;0;0;0;4;0;384;0;0;0;0;5;0;1602;2;0;0;0;0;0;6;0;1036;2;0;0;0;0;0;7;0;523;0;0;0;0;8;0;518;0;0;0;0;9;0;136;0;0;0;0
22.12.17;19:35:00;1;988;13304;0;2;0;644;0;0;0;0;3;0;254;0;0;0;0;4;0;384;0;0;0;0;5;0;1602;2;0;0;0;0;0;6;0;1036;2;0;0;0;0;0;7;0;523;0;0;0;0;8;0;518;0;0;0;0;9;0;136;0;0;0;0
22.12.17;19:30:00;1;1073;13240;0;2;0;644;0;0;0;0;3;0;254;0;0;0;0;4;0;384;0;0;0;0;5;0;1602;2;0;0;0;0;0;6;0;1036;2;0;0;0;0;0;7;0;523;0;0;0;0;8;0;518;0;0;0;0;9;0;136;0;0;0;0
22.12.17;19:25:00;1;838;13164;0;2;0;644;0;0;0;0;3;0;254;0;0;0;0;4;0;384;0;0;0;0;5;0;1602;2;0;0;0;0;0;6;0;1036;2;0;0;0;0;0;7;0;523;0;0;0;0;8;0;518;0;0;0;0;9;0;136;0;0;0;0
22.12.17;19:20:00;1;1032;13074;0;2;0;644;0;0;0;0;3;0;254;0;0;0;0;4;0;384;0;0;0;0;5;0;1602;2;0;0;0;0;0;6;0;1036;2;0;0;0;0;0;7;0;523;0;0;0;0;8;0;518;0;0;0;0;9;0;136;0;0;0;0
22.12.17;19:15:00;1;821;12983;0;2;0;644;0;0;0;0;3;0;254;0;0;0;0;4;0;384;0;0;0;0;5;0;1602;2;0;0;0;0;0;6;0;1036;2;0;0;0;0;0;7;0;523;0;0;0;0;8;0;518;0;0;0;0;9;0;136;0;0;0;0
22.12.17;19:10:00;1;880;12902;0;2;0;644;0;0;0;0;3;0;254;0;0;0;0;4;0;384;0;0;0;0;5;0;1602;2;0;0;0;0;0;6;0;1036;2;0;0;0;0;0;7;0;523;0;0;0;0;8;0;518;0;0;0;0;9;0;136;0;0;0;0
22.12.17;19:05:00;1;898;12819;0;2;0;644;0;0;0;0;3;0;254;0;0;0;0;4;0;384;0;0;0;0;5;0;1602;2;0;0;0;0;0;6;0;1036;2;0;0;0;0;0;7;0;523;0;0;0;0;8;0;518;0;0;0;0;9;0;136;0;0;0;0
22.12.17;19:00:00;1;798;12756;0;2;0;644;0;0;0;0;3;0;254;0;0;0;0;4;0;384;0;0;0;0;5;0;1602;2;0;0;0;0;0;6;0;1036;2;0;0;0;0;0;7;0;523;0;0;0;0;8;0;518;0;0;0;0;9;0;136;0;0;0;0
22.12.17;18:55:00;1;1015;12697;0;2;0;644;0;0;0;0;3;0;254;0;0;0;0;4;0;384;0;0;0;0;5;0;1602;2;0;0;0;0;0;6;0;1036;2;0;0;0;0;0;7;0;523;0;0;0;0;8;0;518;0;0;0;0;9;0;136;0;0;0;0
22.12.17;18:50:00;1;807;12634;0;2;0;644;0;0;0;0;3;0;254;0;0;0;0;4;0;384;0;0;0;0;5;0;1602;2;0;0;0;0;0;6;0;1036;2;0;0;0;0;0;7;0;523;0;0;0;0;8;0;518;0;0;0;0;9;0;136;0;0;0;0
22.12.17;18:45:00;1;764;12566;0;2;0;644;0;0;0;0;3;0;254;0;0;0;0;4;0;384;0;0;0;0;5;0;1602;2;0;0;0;0;0;6;0;1036;2;0;0;0;0;0;7;0;523;0;0;0;0;8;0;518;0;0;0;0;9;0;136;0;0;0;0
22.12.17;18:40:00;1;804;12489;0;2;0;644;0;0;0;0;3;0;254;0;0;0;0;4;0;384;0;0;0;0;5;0;1602;2;0;0;0;0;0;6;0;1036;2;0;0;0;0;0;7;0;523;0;0;0;0;8;0;518;0;0;0;0;9;0;136;0;0;0;0
22.12.17;18:35:00;1;918;12419;0;2;0;644;0;0;0;0;3;0;254;0;0;0;0;4;0;384;0;0;0;0;5;0;1602;2;0;0;0;0;0;6;0;1036;2;0;0;0;0;0;7;0;523;0;0;0;0;8;0;518;0;0;0;0;9;0;136;0;0;0;0
22.12.17;18:30:00;1;611;12352;0;2;0;644;0;0;0;0;3;0;254;0;0;0;0;4;0;384;0;0;0;0;5;0;1602;2;0;0;0;0;0;6;0;1036;2;0;0;0;0;0;7;0;523;0;0;0;0;8;0;518;0;0;0;0;9;0;136;0;0;0;0
22.12.17;18:25:00;1;776;12287;0;2;0;644;0;0;0;0;3;0;254;0;0;0;0;4;0;384;0;0;0;0;5;0;1602;2;0;0;0;0;0;6;0;1036;2;0;0;0;0;0;7;0;523;0;0;0;0;8;0;518;0;0;0;0;9;0;136;0;0;0;0
22.12.17;18:20:00;1;1036;12216;0;2;0;644;0;0;0;0;3;0;254;0;0;0;0;4;0;384;0;0;0;0;5;0;1602;2;0;0;0;0;0;6;0;1036;2;0;0;0;0;0;7;0;523;0;0;0;0;8;0;518;0;0;0;0;9;0;136;0;0;0;0
22.12.17;18:15:00;1;822;12150;0;2;0;644;0;0;0;0;3;0;254;0;0;0;0;4;0;384;0;0;0;0;5;0;1602;2;0;0;0;0;0;6;0;1036;2;0;0;0;0;0;7;0;523;0;0;0;0;8;0;518;0;0;0;0;9;0;136;0;0;0;0
22.12.17;18:10:00;1;1086;12081;0;2;0;644;0;0;0;0;3;0;254;0;0;0;0;4;0;384;0;0;0;0;5;0;1602;2;0;0;0;0;0;6;0;1036;2;0;0;0;0;0;7;0;523;0;0;0;0;8;0;518;0;0;0;0;9;0;136;0;0;0;0
22.12.17;18:05:00;1;801;11997;0;2;0;644;0;0;0;0;3;0;254;0;0;0;0;4;0;384;0;0;0;0;5;0;1602;2;0;0;0;0;0;6;0;1036;2;0;0;0;0;0;7;0;523;0;0;0;0;8;0;518;0;0;0;0;9;0;136;0;0;0;0
22.12.17;18:00:00;1;815;11921;0;2;0;644;0;0;0;0;3;0;254;0;0;0;0;4;0;384;0;0;0;0;5;0;1602;2;0;0;0;0;0;6;0;1036;2;0;0;0;0;0;7;0;523;0;0;0;0;8;0;518;0;0;0;0;9;0;136;0;0;0;0
22.12.17;17:55:00;1;2451;11851;0;2;0;644;0;0;0;0;3;0;254;0;0;0;0;4;0;384;0;0;0;0;5;0;1602;2;0;0;0;0;0;6;0;1036;2;0;0;0;0;0;7;0;523;0;0;0;0;8;0;518;0;0;0;0;9;0;136;0;0;0;0
22.12.17;17:50:00;1;2999;11625;0;2;0;644;0;0;0;0;3;0;254;0;0;0;0;4;0;384;0;0;0;0;5;0;1602;2;0;0;0;0;0;6;0;1036;2;0;0;0;0;0;7;0;523;0;0;0;0;8;0;518;0;0;0;0;9;0;136;0;0;0;0
22.12.17;17:45:00;1;1065;11429;0;2;0;644;0;0;0;0;3;0;254;0;0;0;0;4;0;384;0;0;0;0;5;0;1602;2;0;0;0;0;0;6;0;1036;2;0;0;0;0;0;7;0;523;0;0;0;0;8;0;518;0;0;0;0;9;0;136;0;0;0;0
22.12.17;17:40:00;1;2853;11317;0;2;0;644;0;0;0;0;3;0;254;0;0;0;0;4;0;384;0;0;0;0;5;0;1602;2;0;0;0;0;0;6;0;1036;2;0;0;0;0;0;7;0;523;0;0;0;0;8;0;518;0;0;0;0;9;0;136;0;0;0;0
22.12.17;17:35:00;1;1340;11085;0;2;0;644;0;0;0;0;3;0;254;0;0;0;0;4;0;384;0;0;0;0;5;0;1602;2;0;0;0;0;0;6;0;1036;2;0;0;0;0;0;7;0;523;0;0;0;0;8;0;518;0;0;0;0;9;0;136;0;0;0;0
22.12.17;17:30:00;1;1869;10978;0;2;0;644;0;0;0;0;3;0;254;0;0;0;0;4;0;384;0;0;0;0;5;0;1602;2;0;0;0;0;0;6;0;1036;2;0;0;0;0;0;7;0;523;0;0;0;0;8;0;518;0;0;0;0;9;0;136;0;0;0;0
22.12.17;17:25:00;1;1049;10831;0;2;0;644;0;0;0;0;3;0;254;0;0;0;0;4;0;384;0;0;0;0;5;0;1602;2;0;0;0;0;0;6;0;1036;2;0;0;0;0;0;7;0;523;0;0;0;0;8;0;518;0;0;0;0;9;0;136;0;0;0;0
22.12.17;17:20:00;1;1100;10756;0;2;0;644;0;0;0;0;3;0;254;0;0;0;0;4;0;384;0;0;0;0;5;0;1602;2;0;0;0;0;0;6;0;1036;2;0;0;0;0;0;7;0;523;0;0;0;0;8;0;518;0;0;0;0;9;0;136;0;0;0;0
22.12.17;17:15:00;1;2474;10646;0;2;0;644;0;0;0;0;3;0;254;0;0;0;0;4;0;384;0;0;0;0;5;0;1602;2;0;0;0;0;0;6;0;1036;2;0;0;0;0;0;7;0;523;0;0;0;0;8;0;518;0;0;0;0;9;0;136;0;0;0;0
22.12.17;17:10:00;1;702;10462;0;2;0;644;0;0;0;0;3;0;254;0;0;0;0;4;0;384;0;0;0;0;5;0;1602;2;0;0;0;0;0;6;0;1036;2;0;0;0;0;0;7;0;523;0;0;0;0;8;0;518;0;0;0;0;9;0;136;0;0;0;0
22.12.17;17:05:00;1;1200;10405;0;2;0;644;0;0;0;0;3;0;254;0;0;0;0;4;0;384;0;0;0;0;5;0;1602;2;0;0;0;0;0;6;0;1036;2;0;0;0;0;0;7;0;523;0;0;0;0;8;0;518;0;0;0;0;9;0;136;0;0;0;0
22.12.17;17:00:00;1;672;10311;0;2;0;644;0;0;0;0;3;0;254;0;0;0;0;4;0;384;0;0;0;0;5;0;1602;2;0;0;0;0;0;6;0;1036;2;0;0;0;0;0;7;0;523;0;0;0;0;8;0;518;0;0;0;0;9;0;136;0;0;0;0
22.12.17;16:55:00;1;717;10256;0;2;0;644;0;0;0;0;3;0;254;0;0;0;0;4;0;384;0;0;0;0;5;0;1602;2;0;0;0;0;0;6;0;1036;2;0;0;0;0;0;7;0;523;0;0;0;0;8;0;518;0;0;0;0;9;0;136;0;0;0;0
22.12.17;16:50:00;1;1893;10197;0;2;0;644;0;0;0;0;3;0;254;0;0;0;0;4;0;384;0;0;0;0;5;0;1602;2;0;0;0;0;0;6;0;1036;2;0;0;0;0;0;7;0;523;0;0;0;0;8;0;518;0;0;0;0;9;0;136;0;0;0;0
22.12.17;16:45:00;1;3198;10006;0;2;0;644;0;0;0;0;3;0;254;0;0;0;0;4;0;384;0;0;0;0;5;0;1602;2;0;0;0;0;0;6;0;1036;2;0;0;0;0;0;7;0;523;0;0;0;0;8;0;518;0;0;0;0;9;0;136;0;0;0;0
22.12.17;16:40:00;1;2942;9739;0;2;0;644;0;0;0;0;3;0;254;0;0;0;0;4;0;384;0;0;0;0;5;0;1602;2;0;0;0;0;0;6;0;1036;2;0;0;0;0;0;7;0;523;0;0;0;0;8;0;518;0;0;0;0;9;0;136;0;0;0;0
22.12.17;16:35:00;1;2885;9496;0;2;0;644;0;0;0;0;3;0;254;0;0;0;0;4;0;384;0;0;0;0;5;0;1602;2;0;0;0;0;0;6;0;1036;2;0;0;0;0;0;7;0;523;0;0;0;0;8;0;518;0;0;0;0;9;0;136;0;0;0;0
22.12.17;16:30:00;1;2901;9249;0;2;0;644;0;0;0;0;3;0;254;0;0;0;0;4;0;384;0;0;0;0;5;0;1602;2;0;0;0;0;0;6;0;1036;0;0;0;0;0;0;7;0;523;0;0;0;0;8;0;518;0;0;0;0;9;0;136;0;0;0;0
22.12.17;16:25:00;1;3051;9014;0;2;0;644;0;0;0;0;3;0;254;0;0;148;7;4;0;384;0;0;0;0;5;0;1602;2;0;0;0;0;0;6;0;1036;2;0;0;0;0;0;7;0;523;0;0;0;0;8;0;518;0;0;0;0;9;0;136;0;0;0;0
22.12.17;16:20:00;1;2363;8743;0;2;0;644;0;0;126;5;3;0;254;6;0;284;13;4;0;384;0;0;0;0;5;0;1602;2;0;0;0;0;0;6;0;1036;1;0;0;0;0;0;7;0;523;0;0;0;0;8;0;518;0;0;0;0;9;0;136;0;0;0;0
22.12.17;16:15:00;1;933;8563;0;2;0;644;6;0;273;10;3;0;254;6;0;301;13;4;0;384;0;0;0;0;5;0;1602;2;0;0;0;0;0;6;0;1036;2;0;0;0;0;0;7;0;523;0;0;0;0;8;0;518;0;0;0;0;9;0;136;0;0;0;0
22.12.17;16:10:00;1;862;8484;0;2;0;644;6;0;281;10;3;0;254;6;0;305;13;4;0;384;0;0;0;0;5;0;1602;2;0;0;0;0;0;6;0;1036;2;0;0;0;0;0;7;0;523;0;0;0;0;8;0;518;0;0;0;0;9;0;136;0;0;0;0
22.12.17;16:05:00;1;503;8412;0;2;0;644;6;0;290;10;3;0;254;6;0;321;13;4;0;384;0;0;65;6;5;0;1602;2;0;0;0;0;0;6;0;1036;1;0;0;0;0;0;7;0;523;0;0;0;0;8;0;518;0;0;0;0;9;0;136;0;0;0;0
22.12.17;16:00:00;1;1956;8355;0;2;0;644;6;0;304;10;3;0;254;6;0;358;13;4;0;384;1;0;90;8;5;0;1602;2;7;10;15;15;2;6;0;1036;2;0;0;0;0;0;7;0;523;0;0;0;0;8;0;518;0;0;0;0;9;0;136;0;0;0;0
22.12.17;15:55:00;1;2382;8198;0;2;0;644;6;0;322;10;3;0;254;6;0;391;13;4;0;384;1;0;107;8;5;0;1602;1;168;167;187;185;12;6;0;1036;2;0;0;0;0;2;7;0;523;0;0;0;0;8;0;518;0;0;0;0;9;0;136;0;0;84;2
22.12.17;15:50:00;1;456;8014;0;2;0;644;6;0;332;10;3;0;254;6;0;408;13;4;0;384;1;0;119;8;5;0;1602;26;0;1;292;289;19;6;0;1036;1;5;4;143;302;17;7;0;523;0;0;102;4;8;0;518;0;0;103;4;9;0;136;6;0;267;7
22.12.17;15:45:00;1;556;7977;0;2;0;644;6;0;356;10;3;0;254;3;2;413;13;4;0;384;1;0;149;9;5;0;1602;23;0;0;383;384;20;6;0;1036;23;6;5;181;503;19;7;0;523;6;0;299;12;8;0;518;6;0;303;11;9;0;136;6;0;317;8
22.12.17;15:40:00;1;983;7931;0;2;0;644;6;0;379;10;3;1;254;6;2;454;13;4;0;384;1;0;189;9;5;8;1602;26;1;1;401;609;20;6;0;1036;23;3;2;181;549;19;7;0;523;6;0;370;12;8;0;518;6;0;375;12;9;1;136;6;0;384;8
22.12.17;15:35:00;1;551;7849;0;2;0;644;6;0;389;10;3;2;253;6;5;449;13;4;0;384;1;0;208;9;5;8;1601;26;2;1;411;645;20;6;0;1036;23;5;4;299;566;20;7;0;523;6;0;396;12;8;0;518;6;0;393;12;9;1;136;6;0;427;8
22.12.17;15:30:00;1;479;7811;0;2;0;644;6;0;400;11;3;1;253;6;3;483;13;4;0;384;1;0;208;9;5;12;1600;26;3;0;416;661;20;6;0;1036;23;7;4;456;578;20;7;0;523;6;0;420;12;8;0;518;6;1;425;12;9;1;136;6;1;432;8
22.12.17;15:25:00;1;477;7772;0;2;0;644;6;0;410;11;3;2;253;6;4;500;14;4;0;384;3;0;213;10;5;74;1599;4;21;23;371;587;21;6;0;1036;8;3;4;500;587;21;7;0;523;6;1;435;12;8;0;518;6;1;448;12;9;0;135;6;1;488;8
22.12.17;15:20:00;1;825;7733;0;2;3;644;6;8;403;11;3;0;253;6;0;529;14;4;0;384;3;0;223;10;5;88;1592;4;27;25;371;587;21;6;56;1035;4;24;35;459;431;22;7;0;523;6;0;476;12;8;1;518;6;2;455;12;9;1;135;6;2;499;8
22.12.17;15:15:00;1;965;7661;0;2;5;643;6;8;413;11;3;3;253;4;12;489;14;4;0;384;3;0;232;10;5;115;1585;4;48;39;371;587;21;6;76;1030;4;36;43;459;431;22;7;3;523;4;13;448;13;8;3;517;6;7;473;12;9;1;135;6;4;524;8
22.12.17;15:10:00;1;970;7578;0;2;6;643;6;11;412;11;3;3;253;3;16;488;14;4;0;384;3;0;240;10;5;119;1575;4;50;40;371;587;21;6;78;1024;4;53;61;459;431;22;7;10;522;3;16;447;13;8;4;517;3;17;447;12;9;2;135;3;8;488;8
22.12.17;15:05:00;1;470;7499;0;2;5;643;6;9;415;11;3;2;252;6;7;522;14;4;0;384;3;0;225;10;5;125;1565;4;55;46;371;587;21;6;82;1017;4;37;43;459;431;22;7;3;521;6;7;477;13;8;3;517;6;7;478;13;9;1;135;6;4;527;8
22.12.17;15:00:00;1;345;7463;0;2;14;642;3;22;398;12;3;1;252;6;7;514;14;4;1;383;3;1;210;10;5;119;1554;4;49;43;371;587;21;6;79;1011;4;38;42;459;431;22;7;1;521;6;8;471;13;8;8;516;6;17;446;13;9;1;135;6;5;521;8
22.12.17;14:55:00;1;591;7423;0;2;16;641;6;23;405;12;3;2;252;6;8;525;14;4;8;383;3;8;199;10;5;139;1544;4;60;52;371;587;21;6;87;1004;4;28;32;458;430;22;7;1;521;6;7;482;13;8;6;516;6;7;483;13;9;1;135;6;5;529;8
22.12.17;14:50:00;1;331;7376;0;2;76;639;4;99;356;12;3;6;252;6;13;534;14;4;28;383;3;29;198;10;5;192;1533;4;90;78;371;587;21;6;128;996;4;68;76;458;431;22;7;46;521;6;67;423;13;8;42;515;6;68;424;13;9;2;135;6;7;541;8
22.12.17;14:45:00;1;366;7346;0;2;116;633;4;144;369;12;3;64;251;4;99;470;14;4;69;380;3;72;199;10;5;275;1516;4;130;115;371;587;21;6;179;985;4;96;102;459;431;21;7;108;517;4;132;388;13;8;102;512;4;137;424;13;9;7;135;6;11;562;8
22.12.17;14:40:00;1;1952;7314;0;2;160;623;4;185;379;12;3;88;246;4;128;482;14;4;115;375;5;119;223;10;5;349;1493;4;181;145;371;587;21;6;227;970;4;99;102;459;431;21;7;138;508;4;168;407;13;8;138;504;4;169;414;13;9;77;134;4;98;487;8
22.12.17;14:35:00;1;3072;7144;0;2;164;610;4;192;384;12;3;95;239;4;130;495;14;4;115;365;5;120;221;10;5;360;1463;4;180;157;371;587;21;6;236;951;4;120;123;459;431;21;7;156;497;4;187;430;13;8;153;492;4;189;436;13;9;81;128;4;106;488;8
22.12.17;14:30:00;1;3156;6863;0;2;177;596;4;205;379;12;3;101;231;4;137;503;14;4;133;355;5;139;226;10;5;378;1433;4;191;167;371;587;21;6;250;931;4;120;127;459;431;21;7;176;484;4;210;461;13;8;173;480;4;209;460;13;9;89;121;4;117;476;8
22.12.17;14:25:00;1;2774;6617;0;2;140;582;4;164;379;12;3;76;222;4;115;488;14;4;92;344;5;96;204;10;5;310;1402;4;159;128;371;587;21;6;208;910;4;97;106;458;431;21;7;127;469;4;160;447;13;8;126;465;4;156;462;13;9;61;113;4;83;398;8
22.12.17;14:20:00;1;3315;6377;0;2;124;570;4;151;379;12;3;68;216;4;103;459;13;4;79;336;3;82;199;10;5;284;1376;4;144;118;371;587;21;6;188;893;4;76;82;458;431;21;7;112;458;4;146;451;13;8;110;454;4;144;457;13;9;13;108;6;16;560;8
22.12.17;14:15:00;1;2565;6093;0;2;107;560;4;133;368;12;3;8;210;6;13;548;13;4;58;330;3;61;198;10;5;256;1353;4;121;111;371;587;21;6;168;878;4;75;82;459;431;21;7;85;449;4;114;469;13;8;81;445;4;118;468;13;9;14;107;6;21;532;8
22.12.17;14:10:00;1;2171;5885;0;2;79;551;4;102;361;12;3;7;210;6;14;537;13;4;29;325;3;30;197;10;5;201;1332;4;101;87;371;587;21;6;133;864;4;57;67;458;431;21;7;50;442;4;90;434;13;8;48;438;4;92;445;13;9;4;106;6;10;546;8
22.12.17;14:05:00;1;1991;5712;0;2;89;544;4;114;371;12;3;14;209;6;26;517;13;4;48;322;3;50;197;10;5;221;1315;4;113;93;371;587;21;6;150;852;4;76;84;458;431;21;7;50;437;4;95;460;13;8;70;434;4;99;448;13;9;6;106;6;10;554;8
22.12.17;14:00:00;1;2132;5529;0;2;87;536;4;113;363;11;3;9;208;6;16;540;13;4;45;318;3;46;197;10;5;219;1296;4;110;99;371;587;21;6;146;840;4;68;71;459;431;21;7;67;433;4;96;459;13;8;60;428;4;96;459;13;9;0;105;6;0;579;8
22.12.17;13:55:00;1;1382;5354;0;2;78;529;4;104;368;11;3;6;207;6;12;542;13;4;34;314;3;36;197;10;5;202;1278;4;103;83;371;587;21;6;132;828;4;63;70;459;431;21;7;54;428;4;87;436;13;8;50;423;4;88;433;13;9;9;105;4;16;522;8
22.12.17;13:50:00;1;1538;5273;0;2;90;523;4;114;359;11;3;8;207;4;15;539;13;4;44;312;3;46;197;10;5;221;1261;4;113;96;371;587;21;6;148;817;4;67;76;459;431;21;7;59;423;4;93;451;13;8;71;419;4;99;417;13;9;13;104;3;21;519;8
22.12.17;13:45:00;1;1390;5143;0;2;97;515;4;122;369;11;3;18;206;6;30;536;13;4;58;308;3;60;197;10;5;238;1243;4;121;102;371;587;21;6;156;804;4;77;81;459;431;21;7;78;418;4;107;427;13;8;70;413;4;106;436;13;9;15;103;6;20;526;8
22.12.17;13:40:00;1;1929;5026;0;2;121;507;4;145;363;11;3;65;204;4;101;473;14;4;74;303;3;77;198;10;5;281;1223;4;136;115;371;587;21;6;181;791;4;84;86;459;431;21;7;96;412;4;135;432;13;8;100;407;4;132;427;13;9;9;102;6;14;557;8
22.12.17;13:35:00;1;2271;4869;0;2;147;497;4;173;376;11;3;81;199;4;118;487;13;4;103;297;3;108;215;10;5;325;1199;4;165;135;371;587;21;6;215;775;4;127;132;459;431;21;7;128;404;4;163;411;13;8;131;399;4;163;437;13;9;52;101;6;63;503;8
22.12.17;13:30:00;1;1803;4669;0;2;161;485;4;188;380;11;3;90;192;4;129;494;13;4;115;288;5;120;225;10;5;351;1172;4;183;150;371;588;21;6;232;758;4;113;121;459;431;21;7;149;393;4;188;457;13;8;158;388;4;187;459;13;9;84;97;4;106;464;8
22.12.17;13:25:00;1;229;4545;0;2;157;471;4;182;383;11;3;91;185;4;126;492;13;4;113;279;5;117;225;10;5;345;1143;4;175;150;371;587;21;6;231;738;4;128;129;459;431;21;7;134;381;4;172;473;13;8;141;375;4;176;467;13;9;76;90;4;104;470;8
22.12.17;13:20:00;1;223;4526;0;2;153;458;4;181;379;10;3;89;177;4;124;479;13;4;109;269;5;114;220;10;5;337;1114;4;167;141;371;587;21;6;221;719;4;94;93;459;431;21;7;138;370;4;170;457;13;8;142;364;4;173;458;13;9;77;84;4;102;472;8
22.12.17;13:15:00;1;226;4507;0;2;152;445;4;180;381;10;3;86;170;4;123;477;13;4;106;260;5;110;223;10;5;335;1086;4;172;142;371;587;21;6;218;700;4;106;114;459;431;21;7;136;358;4;178;426;13;8;139;352;4;175;467;13;9;75;77;4;98;458;8